Fort Indiantown Gap, PA

3:56 PM EST on December 12, 2017 (GMT -0500)
Muir Army Air Field

Weather History for KMUI - September, 2012

Change the Weather History Date:

Monday, September 17, 2012

  Actual Average Record
Temperature  
Mean Temperature 60 °F -  
Max Temperature 76 °F 73 °F 82 °F (1997)
Min Temperature 44 °F 56 °F 38 °F (2007)
Degree Days  
Heating Degree Days 6    
Growing Degree Days 10 (Base 50)    
Moisture  
Dew Point 53 °F    
Average Humidity 73    
Maximum Humidity 98    
Minimum Humidity 38    
Precipitation  
Precipitation 0.00 in - - ()
Sea Level Pressure  
Sea Level Pressure 30.06 in    
Wind  
Wind Speed 2 mph (South)    
Max Wind Speed 13 mph    
Max Gust Speed -    
Visibility 10 miles    
Events      
Averages and records for this station are not official NWS values.
T = Trace of Precipitation, MM = Missing Value Source: NWS Daily Summary

Daily Weather History Graph

Daily Weather History Graph

Search for Another Location

Airport or City:

Trip Planner

Search our weather history database for the weather conditions in past years. The results will help you decide how hot, cold, wet, or windy it might be!

Date:

Astronomy

Sep. 17, 2012 Rise Set
Actual Time 6:49 AM EDT 7:11 PM EDT
Civil Twilight 6:22 AM EDT 7:38 PM EDT
Nautical Twilight 5:50 AM EDT 8:10 PM EDT
Astronomical Twilight 5:17 AM EDT 8:43 PM EDT
Moon 8:36 AM EDT (9/17) 7:51 PM EDT (9/17)
Length of Visible Light 13h 16m
Length of Day
12h 21m
Waxing Crescent, 3% of the Moon is Illuminated
Sep 17
Waxing Crescent
Sep 22
First Quarter
Sep 29
Full
Oct 8
Last Quarter
Oct 15
New

Hourly Weather History & Observations

Time (EDT) Temp. Dew Point Humidity Pressure Visibility Wind Dir Wind Speed Gust Speed Precip Events Conditions
12:55 AM 48.4 °F 47.1 °F 95% 30.10 in 10.0 mi Calm Calm - N/A   Clear
1:55 AM 47.3 °F 46.2 °F 96% 30.11 in 10.0 mi Calm Calm - N/A   Clear
2:55 AM 46.9 °F 46.0 °F 97% 30.11 in 10.0 mi Calm Calm - N/A   Clear
3:55 AM 46.0 °F 45.5 °F 98% 30.11 in 10.0 mi Calm Calm - N/A   Clear
4:55 AM 45.0 °F 44.4 °F 98% 30.12 in 10.0 mi Calm Calm - N/A   Clear
5:55 AM 45.0 °F 44.4 °F 98% 30.12 in 10.0 mi Calm Calm - N/A   Clear
6:55 AM 44.2 °F 43.7 °F 98% 30.13 in 10.0 mi Calm Calm - N/A   Clear
7:55 AM 50.7 °F 46.6 °F 86% 30.14 in 10.0 mi Calm Calm - N/A   Clear
8:55 AM 59.9 °F 50.5 °F 71% 30.14 in 10.0 mi Calm Calm - N/A   Clear
9:55 AM 62.6 °F 51.1 °F 66% 30.14 in 10.0 mi Calm Calm - N/A   Clear
10:55 AM 66.7 °F 51.6 °F 58% 30.12 in 10.0 mi Calm Calm - N/A   Clear
11:55 AM 70.9 °F 51.3 °F 50% 30.11 in 10.0 mi SSW 8.1 mph - N/A   Clear
12:55 PM 74.1 °F 47.1 °F 38% 30.09 in 10.0 mi SSE 8.1 mph - N/A   Clear
1:55 PM 74.5 °F 48.0 °F 39% 30.07 in 10.0 mi Variable 5.8 mph - N/A   Clear
2:55 PM 75.0 °F 51.6 °F 44% 30.04 in 10.0 mi South 8.1 mph - N/A   Partly Cloudy
3:55 PM 74.7 °F 53.1 °F 47% 30.02 in 10.0 mi Variable 4.6 mph - N/A   Scattered Clouds
4:55 PM 74.5 °F 54.1 °F 49% 30.01 in 10.0 mi SSE 12.7 mph - N/A   Scattered Clouds
5:55 PM 72.7 °F 54.7 °F 53% 30.01 in 10.0 mi SSE 8.1 mph - N/A   Partly Cloudy
6:55 PM 70.3 °F 56.7 °F 62% 30.01 in 10.0 mi SSE 6.9 mph - N/A   Clear
7:55 PM 67.5 °F 58.5 °F 73% 30.01 in 10.0 mi Calm Calm - N/A   Scattered Clouds
8:55 PM 68.2 °F 59.0 °F 72% 30.01 in 10.0 mi Variable 6.9 mph - N/A   Overcast
9:30 PM 68.0 °F 59.0 °F 73% 30.01 in 10.0 mi South 4.6 mph - N/A   Overcast
9:55 PM 68.5 °F 60.4 °F 75% 30.00 in 10.0 mi South 4.6 mph - N/A   Overcast
10:55 PM 68.0 °F 61.7 °F 80% 29.99 in 10.0 mi Calm Calm - N/A   Overcast
11:38 PM 68.0 °F 62.6 °F 83% 29.99 in 10.0 mi WSW 3.5 mph - N/A   Light Drizzle
11:47 PM 68.0 °F 62.6 °F 83% 29.98 in 10.0 mi SW 3.5 mph - N/A   Overcast
11:55 PM 67.6 °F 62.4 °F 83% 29.98 in 10.0 mi Calm Calm - 0.00 in   Overcast